{"data":{"norad_id":64222,"intl_designator":"2025-117V","name":"STARLINK-34318","alt_names":[],"object_type":"PAYLOAD","status":"ACTIVE","operator":null,"country":"US","launch_date":"2025-05-31","launch_site_code":"AFWTR","launch_vehicle":null,"mission":null,"orbit_class":"UNKNOWN","rcs_meters":null,"size_class":null,"mass_kg":null,"dimensions":null,"purposes":["comms"],"wikipedia_slug":null,"has_3d_model":false,"image_url":null,"decayed_at":null,"tle_current":{"epoch":"2026-05-25T02:27:48.992832Z","epoch_age_seconds":65916,"freshness":"FRESH","line1":"1 64222U 25117V   26145.10265038  .00013790  00000+0  47670-3 0  9991","line2":"2 64222  53.1612  44.7563 0001168  75.3335 284.7795 15.30209650 56225","mean_motion":15.3020965,"eccentricity":0.0001168,"inclination_deg":53.1612,"raan_deg":44.7563,"arg_perigee_deg":75.3335,"mean_anomaly_deg":284.7795,"bstar":0.0004767,"rev_number":5622,"period_min":94.104752247511,"perigee_km":474.38578825382,"apogee_km":475.98672456652,"semimajor_km":6853.3232564102,"source":"CELESTRAK","updated_at":"2026-05-25T13:38:20.321466Z"}}}